Regional Weather Roundup
Issued by NWS

Home | Current Version | Previous Version | Text Only | Print | Product List | Glossary Off
Versions: 1 2 3 4 5 6 7 8 9 10 11 12 13 14 15 16 17 18 19 20 21 22 23 24 25 26 27 28 29 30 31 32 33 34 35 36 37 38 39 40 41 42 43 44 45 46 47 48 49 50

000
ASUS43 KMPX 281610
RWRMN
WEATHER ROUNDUP FOR MINNESOTA
NATIONAL WEATHER SERVICE TWIN CITIES/CHANHASSEN MN
1100 AM CDT SAT MAY 28 2016


NOTE: "FAIR" INDICATES FEW OR NO CLOUDS BELOW 12,000 FEET WITH NO
SIGNIFICANT WEATHER AND/OR OBSTRUCTIONS TO VISIBILITY. N/A MEANS
CURRENT SKY AND/OR WEATHER CONDITIONS ARE NOT AVAILABLE.

MNZ060>063-068>070-281700-
   Twin Cities Metro

CITY           SKY/WX    TMP DP  RH WIND       PRES   REMARKS
TWIN CITIES    CLOUDY    66  59  78 N3        29.76F
ST PAUL        CLOUDY    64  60  87 CALM      29.77S
CRYSTAL        CLOUDY    62  57  83 NE5       29.76S
BLAINE         CLOUDY    63  61  94 VRB6      29.77S
EDEN PRAIRIE   CLOUDY    65  58  78 CALM      29.76S
SOUTH ST PAUL  CLOUDY    65  61  85 CALM      29.76S
LAKE ELMO      CLOUDY    63  61  94 CALM      29.78S
$$
MNZ001>005-007-008-013>017-022>024-027-028-281700-
   Northwest Minnesota

CITY           SKY/WX    TMP DP  RH WIND       PRES   REMARKS
BEMIDJI        CLOUDY    58  56  92 NE8       29.80S
HALLOCK        CLOUDY    70  57  64 NE3       29.85S
ROSEAU         CLOUDY    64  59  82 NE8       29.87S
WARROAD        CLOUDY    63  57  82 NE8       29.88S
THIEF RVR FALL CLOUDY    64  54  68 NE12      29.86F
CROOKSTON      PTSUNNY   70  55  60 NE9       29.84S
FOSSTON        CLOUDY    59  55  88 N12       29.83F FOG
DETROIT LAKES  CLOUDY    61  54  77 N9        29.82R
MOORHEAD       CLOUDY    66  57  72 NE9       29.82S
PARK RAPIDS    CLOUDY    59  54  83 N6        29.79S HAZE
MAHNOMEN       CLOUDY    61  57  85 N12G21    29.82S
$$
MNZ006-009>011-018-025>026-281700-
   North Central Minnesota

CITY           SKY/WX    TMP DP  RH WIND       PRES   REMARKS
BAUDETTE       CLOUDY    63  58  83 N8        29.85S
FLAG ISLAND    CLOUDY    63  57  82 N12       29.87S
INTL FALLS     CLOUDY    59  55  87 NE8       29.83S FOG
WASKISH        CLOUDY    59  55  88 NE6       29.83S FOG
BIG FORK       CLOUDY    59  57  94 NE7       29.79F FOG
LONGVILLE      CLOUDY    59  55  88 N3        29.78S
GRAND RAPIDS   CLOUDY    58  56  93 N5        29.79F
CRANE LAKE     CLOUDY    55  55 100 NE3       29.83S FOG
ORR            CLOUDY    57  55  94 CALM      29.78S FOG
COOK           DRIZZLE   59  57  94 E5        29.80S
WALKER         CLOUDY    57  54  91 N6        29.79S
$$
MNZ012-019>021-037-281700-
   Northeast Minnesota

CITY           SKY/WX    TMP DP  RH WIND       PRES   REMARKS
DULUTH         CLOUDY    55  54  96 NE8       29.78R FOG
ELY            CLOUDY    59  57  94 NE5       29.79F
HIBBING        CLOUDY    58  58 100 VRB5      29.78S FOG
EVELETH        CLOUDY    59  59 100 CALM      29.79F FOG
DULUTH HARBOR  CLOUDY    48  46  93 E8        29.80S FOG
TWO HARBORS    HAZE      57  52  82 SE9G16    29.79R VSB 3/4
SILVER BAY     FOG       55  54  94 E14       29.78R VSB<1/4
GRAND MARAIS     N/A     48  47  96 NE8       29.77F
G MARAIS ARPRT CLOUDY    57  55  94 NE13      29.81F FOG
$$
MNZ029>031-032-039>041-046>048-054>057-064-281700-
   West Central Minnesota

CITY           SKY/WX    TMP DP  RH WIND       PRES   REMARKS
FERGUS FALLS   CLOUDY    66  54  63 NE7       29.76S
WHEATON        PTSUNNY   68  57  68 N6        29.81S
MORRIS         CLOUDY    63  57  82 CALM      29.79R
ALEXANDRIA     CLOUDY    63  55  75 NW3       29.80R
ELBOW LAKE     FAIR      65  55  68 NE5       29.79S
WADENA         CLOUDY    59  54  82 N7        29.79S
GLENWOOD       CLOUDY    61  55  82 CALM      29.80R
APPLETON       DRIZZLE   63  55  77 CALM      29.79S
BENSON         CLOUDY    61  55  82 E1        29.79F
ORTONVILLE     DRIZZLE   63  55  77 E3        29.80S
MADISON        LGT RAIN  61  57  88 N6        29.80S
WILLMAR        LGT RAIN  61  57  88 NE3       29.80R
$$
MNZ033>034-036-042>043-049>051-058-059-281700-
   Central Minnesota

CITY           SKY/WX    TMP DP  RH WIND       PRES   REMARKS
ST CLOUD       CLOUDY    60  56  86 CALM      29.78R
SAUK CENTRE    CLOUDY    60  55  83 N3        29.79R
PAYNESVILLE    CLOUDY    60  57  91 CALM      29.79S
AITKIN         CLOUDY    61  54  77 N5        29.76F
PINE RIVER     CLOUDY    57  55  94 N3        29.82S
BRAINERD       CLOUDY    59  56  89 N6        29.78S
STAPLES        CLOUDY    59  54  82 N5        29.78S
LONG PRAIRIE   CLOUDY    59  55  88 N3        29.78S
LITTLE FALLS   CLOUDY    61  54  77 CALM      29.77S
LITCHFIELD     CLOUDY    61  59  94 CALM      29.79S
BUFFALO        CLOUDY    59  55  88 CALM      29.80R
MAPLE LAKE     CLOUDY    59  58  95 CALM      29.80R
HUTCHINSON     LGT RAIN  61  58  92 CALM      29.80R
$$
MNZ037-044-045-052-053-281700-
   East Central Minnesota

CITY           SKY/WX    TMP DP  RH WIND       PRES   REMARKS
PRINCETON      CLOUDY    61  55  82 SE6       29.79R
MORA           CLOUDY    55  52  88 SE3       29.80R
CAMBRIDGE      CLOUDY    63  52  67 E3        29.77S
RUSH CITY      CLOUDY    59  55  87 CALM      29.79S
MOOSE LAKE     CLOUDY    55  54  94 E3        29.77R
HINCKLEY       CLOUDY    57  55  94 S3        29.79R
CLOQUET        CLOUDY    55  54  94 E3        29.78R
MCGREGOR       CLOUDY    59  55  88 NW5       29.77F
$$
MNZ071>073-080-081-089-090-097-098-281700-
   Southwest Minnesota

CITY           SKY/WX    TMP DP  RH WIND       PRES   REMARKS
MONTEVIDEO     LGT RAIN  61  59  94 NE3       29.81R
GRANITE FALLS  RAIN      61  59  93 N6        29.80F
CANBY          LGT RAIN  63  61  93 N6        29.80S
MARSHALL       RAIN      60  59  96 N13       29.77F
REDWOOD FALLS  LGT RAIN  60  58  92 N5        29.78R FOG
OLIVIA         RAIN      59  55  88 NE8       29.79R
PIPESTONE      HVY RAIN  61  61 100 NE5       29.78S
WINDOM         HVY RAIN  61  59  94 CALM      29.78R
WORTHINGTON    CLOUDY    62  59  90 N6        29.78S
JACKSON        CLOUDY    64  57  77 W7        29.77F
TRACY          HVY RAIN  60  59  99 NE7       29.78R
SLAYTON        HVY RAIN  60  60 100 CALM      29.80R
$$
MNZ065>067-074>077-082>085-091>093-281700-
   South Central Minnesota

CITY           SKY/WX    TMP DP  RH WIND       PRES   REMARKS
MANKATO        CLOUDY    64  61  88 SE10      29.77R
NEW ULM        RAIN      61  61 100 N5        29.77S
ST JAMES       CLOUDY    57  57 100 NW6       29.77R
FAIRMONT       CLOUDY    66  59  77 W10       29.76R
GLENCOE        LGT RAIN  63  60  92 CALM      29.78R
FARIBAULT      CLOUDY    66  63  88 SE8       29.77S
OWATONNA       LGT RAIN  66  63  88 SE7       29.77S
WASECA         HVY RAIN  63  61  94 SW6       29.78S
ALBERT LEA     CLOUDY    66  64  94 SE8       29.77S
$$
MNZ078>079-086>088-094>096-281700-
   Southeast Minnesota

CITY           SKY/WX    TMP DP  RH WIND       PRES   REMARKS
ROCHESTER      LGT RAIN  65  64  97 S5        29.78F
RED WING       CLOUDY    70  63  78 CALM      29.74F
STANTON        CLOUDY    69  62  78 SE5       29.75S
DODGE CENTER   RAIN      64  63  94 SE3       29.78S
WINONA         RAIN      70  64  83 SW5       29.77R
AUSTIN         LGT RAIN  64  63  94 S5        29.78S
PRESTON        CLOUDY    68  61  78 SW13      29.79F
$$
ABBREVIATIONS USED IN REMARKS
   TC - TEMPERATURES IN CELSIUS
  WCI - WIND CHILL INDEX
   HX - HEAT INDEX
  VSB - VISIBILITY
$$



USA.gov is the U.S. government's official web portal to all federal, state and local government web resources and services.